Total_Precipitation_Accumulation
1.38 1.36 1.33 1.45 1.44 1.42 1.49 1.46 1.31 1.43 1.44 1.28 1.25 1.33 1.49 1.59 1.71 1.76 2.09 2.76 3.55 4.32 4.50 4.20 3.72 3.38 3.28 3.17 3.05 2.99 2.89 2.85 2.93 3.06 2.97 3.05 3.31 3.32 3.31 3.64 3.86 4.15 4.24
1.17 1.29 1.41 1.52 1.40 1.37 1.43 1.34 1.31 1.42 1.47 1.33 1.25 1.31 1.41 1.54 1.64 1.73 1.85 2.22 2.69 3.44 4.19 4.34 4.03 3.71 3.49 3.43 3.41 3.34 3.06 2.83 2.74 2.90 2.94 2.87 3.01 3.07 3.02 3.23 3.57 3.85 4.29
1.19 1.27 1.38 1.47 1.46 1.42 1.39 1.41 1.45 1.43 1.35 1.28 1.32 1.29 1.33 1.46 1.67 1.77 1.79 1.99 2.08 2.29 3.09 3.91 4.19 4.04 3.80 3.81 3.76 3.57 3.31 3.09 2.89 2.88 2.95 2.88 2.95 2.88 2.91 3.00 3.11 3.24 3.79
1.18 1.44 1.46 1.35 1.44 1.57 1.62 1.68 1.65 1.58 1.52 1.49 1.49 1.43 1.43 1.55 1.75 1.84 1.74 1.73 1.83 1.76 2.10 2.73 3.29 3.68 4.02 4.17 4.15 3.93 3.67 3.45 3.11 2.96 2.93 2.90 2.96 2.77 2.80 2.84 2.84 2.98 3.22
1.28 1.55 1.65 1.49 1.46 1.70 1.70 1.55 1.61 1.73 1.78 1.85 1.65 1.63 1.66 1.78 1.84 1.76 1.71 1.75 1.82 1.82 1.88 1.89 2.21 2.63 3.34 3.93 4.28 4.49 4.14 3.83 3.38 3.04 2.91 2.74 2.78 2.71 2.65 2.62 2.60 2.79 2.87
1.54 1.76 1.92 1.83 1.73 1.89 1.94 1.79 1.90 2.04 2.06 2.21 1.98 1.80 1.78 1.83 1.85 1.88 1.82 1.85 1.93 1.78 1.80 1.80 1.84 1.73 2.19 3.01 3.83 4.32 4.40 4.18 3.76 3.29 3.09 2.78 2.85 2.74 2.52 2.42 2.50 2.68 2.79
2.00 2.13 2.11 2.32 2.36 2.32 2.36 2.32 2.50 2.59 2.39 2.28 2.66 2.53 2.07 1.76 1.71 1.85 1.96 1.99 2.07 2.04 1.98 1.97 1.95 1.73 1.66 2.03 2.92 3.85 4.11 4.15 3.93 3.57 3.43 3.15 2.89 2.68 2.58 2.49 2.49 2.46 2.63
2.36 2.27 2.37 2.59 2.60 2.69 2.77 2.65 2.85 3.01 2.75 2.48 3.02 3.52 3.03 2.49 1.87 1.64 1.76 1.91 2.10 2.10 2.01 1.89 1.92 1.91 1.82 1.87 2.14 2.92 3.53 4.02 4.06 3.81 3.65 3.54 2.99 2.72 2.64 2.56 2.53 2.47 2.42
2.71 2.66 2.63 2.76 2.77 2.84 3.01 3.03 3.03 3.20 3.20 2.90 2.90 3.53 3.51 3.10 2.62 2.02 1.83 1.89 2.08 2.17 2.18 2.11 1.94 2.00 1.94 2.02 2.19 2.17 2.50 3.25 3.91 3.90 3.75 3.66 3.36 3.00 2.75 2.70 2.64 2.51 2.32
2.85 2.81 2.83 2.90 2.92 2.90 2.98 2.99 2.98 3.33 3.61 3.46 3.22 2.96 2.89 2.89 2.95 2.59 2.14 1.95 2.04 2.11 2.22 2.12 2.13 2.22 2.22 2.23 2.29 2.05 1.94 2.22 2.90 3.50 3.67 3.68 3.56 3.31 2.98 2.89 2.87 2.68 2.49
2.63 2.52 2.64 2.83 2.87 2.88 2.88 3.02 3.10 3.38 3.48 3.47 3.43 3.33 3.12 2.89 2.47 2.55 2.51 2.26 2.17 2.05 2.12 2.26 2.34 2.37 2.33 2.53 2.71 2.20 1.82 1.80 2.21 2.79 3.33 3.59 3.72 3.74 3.47 3.16 3.00 2.98 2.90
2.58 2.38 2.42 2.53 2.65 2.74 2.73 2.78 2.95 3.09 3.34 3.50 3.46 3.33 3.36 3.31 3.06 2.81 2.47 2.34 2.45 2.30 2.13 2.10 2.18 2.26 2.40 2.58 2.54 2.40 1.86 1.69 1.83 2.03 2.40 2.96 3.43 3.76 3.76 3.61 3.41 3.30 3.31
2.55 2.50 2.39 2.40 2.44 2.49 2.64 2.87 2.89 2.94 3.10 3.29 3.33 3.28 3.29 3.16 3.11 3.09 2.82 2.45 2.35 2.24 2.15 2.08 2.04 2.11 2.17 2.31 2.37 2.33 1.92 1.80 1.69 1.64 1.69 1.92 2.50 3.07 3.51 3.81 3.84 3.68 3.74
2.09 2.09 2.17 2.23 2.32 2.37 2.46 2.66 2.78 2.81 2.87 2.90 2.90 3.08 3.19 3.10 2.92 2.86 2.87 2.91 2.63 2.37 2.17 2.06 2.00 1.97 2.02 2.06 2.20 2.23 1.83 1.74 1.63 1.53 1.46 1.39 1.62 2.00 2.56 3.03 3.28 3.39 3.68
1.70 1.70 1.78 1.94 2.09 2.20 2.25 2.38 2.56 2.58 2.69 2.73 2.77 2.80 2.80 2.88 2.76 2.60 2.60 2.73 2.85 2.62 2.41 2.19 2.00 1.81 1.84 1.83 1.96 1.71 1.69 1.76 1.68 1.54 1.40 1.30 1.30 1.47 1.81 2.22 2.48 2.47 2.54
1.70 1.72 1.72 1.75 1.84 1.91 2.01 2.17 2.28 2.36 2.45 2.46 2.47 2.52 2.55 2.59 2.58 2.53 2.53 2.59 2.62 2.59 2.46 2.19 1.90 1.66 1.70 1.75 1.95 1.67 1.73 1.96 1.88 1.71 1.48 1.40 1.35 1.35 1.48 1.63 1.75 1.71 1.70
1.77 1.74 1.76 1.77 1.75 1.80 1.87 1.96 2.06 2.20 2.21 2.24 2.13 2.17 2.30 2.37 2.55 2.57 2.53 2.53 2.52 2.45 2.32 2.17 1.90 1.70 1.67 1.77 1.85 1.73 1.75 1.81 1.74 1.71 1.56 1.47 1.33 1.38 1.49 1.54 1.58 1.50 1.41
1.60 1.61 1.71 1.64 1.62 1.65 1.72 1.84 1.93 1.95 2.00 1.96 1.87 1.92 2.05 2.12 2.26 2.37 2.47 2.39 2.41 2.39 2.36 2.31 2.08 1.87 1.78 1.78 1.87 1.84 1.71 1.68 1.69 1.77 1.60 1.50 1.39 1.30 1.42 1.44 1.55 1.62 1.50
1.56 1.61 1.69 1.74 1.63 1.53 1.60 1.67 1.77 1.80 1.77 1.68 1.65 1.71 1.80 1.89 1.98 2.09 2.17 2.25 2.29 2.28 2.36 2.33 2.13 1.95 1.79 1.74 1.80 1.75 1.69 1.75 1.65 1.76 1.73 1.59 1.53 1.40 1.40 1.42 1.41 1.54 1.55
1.42 1.42 1.51 1.60 1.62 1.54 1.48 1.45 1.46 1.64 1.65 1.55 1.44 1.43 1.46 1.50 1.63 1.77 1.87 2.00 2.15 2.30 2.38 2.39 2.24 2.00 1.82 1.78 1.86 1.92 1.90 1.80 1.78 1.68 1.73 1.69 1.68 1.63 1.50 1.47 1.37 1.37 1.48
1.23 1.25 1.39 1.55 1.60 1.56 1.57 1.54 1.42 1.45 1.53 1.57 1.51 1.39 1.28 1.30 1.45 1.56 1.62 1.85 2.04 2.18 2.31 2.36 2.27 2.09 1.93 1.86 1.83 1.84 1.93 2.01 2.01 1.84 1.78 1.66 1.62 1.49 1.36 1.38 1.37 1.31 1.30
1.14 1.11 1.18 1.31 1.45 1.42 1.64 1.68 1.54 1.39 1.40 1.43 1.45 1.43 1.43 1.39 1.28 1.27 1.37 1.54 1.75 1.91 2.06 2.16 2.19 2.01 1.83 1.81 1.89 1.92 1.94 2.02 2.07 1.90 1.83 1.85 1.79 1.66 1.49 1.35 1.41 1.35 1.29
1.13 1.11 1.16 1.27 1.39 1.59 1.70 1.52 1.58 1.51 1.43 1.44 1.39 1.40 1.43 1.39 1.47 1.33 1.31 1.33 1.34 1.48 1.72 1.92 1.93 1.83 1.88 1.84 1.84 1.82 1.81 1.82 1.87 1.90 1.88 1.87 1.82 1.73 1.55 1.47 1.57 1.49 1.44
1.11 1.13 1.19 1.26 1.34 1.55 1.67 1.49 1.67 1.67 1.63 1.56 1.50 1.53 1.58 1.58 1.51 1.64 1.61 1.49 1.37 1.32 1.41 1.34 1.40 1.70 1.85 1.93 1.96 1.98 2.01 1.92 1.85 1.88 1.82 1.83 1.69 1.62 1.53 1.45 1.54 1.47 1.43
1.13 1.13 1.13 1.14 1.15 1.26 1.42 1.36 1.50 1.58 1.66 1.65 1.53 1.50 1.56 1.55 1.81 1.93 1.75 1.64 1.53 1.44 1.61 1.63 1.60 1.68 1.80 1.84 1.86 1.92 1.99 1.96 1.87 1.80 1.71 1.64 1.57 1.61 1.68 1.58 1.54 1.63 1.59
1.19 1.11 1.07 1.03 1.03 1.05 1.29 1.21 1.31 1.35 1.49 1.63 1.60 1.55 1.73 1.67 1.75 1.76 1.63 1.77 1.67 1.51 1.45 1.41 1.39 1.44 1.48 1.58 1.68 1.67 1.81 1.88 1.79 1.82 1.65 1.61 1.62 1.71 1.77 1.63 1.47 1.48 1.58